Los Angeles, CA

7:55 AM PDT on March 23, 2017 (GMT -0700)
Los Angeles International

Weather History for KLAX - November, 2012

Change the Weather History Date:

Tuesday, November 27, 2012

  Actual Average Record
Temperature  
Mean Temperature 60 °F 59 °F  
Max Temperature 67 °F 67 °F 86 °F (2014)
Min Temperature 53 °F 51 °F 40 °F (1948)
Degree Days  
Heating Degree Days 5 6  
Month to date heating degree days 80 117  
Since 1 July heating degree days 97 161  
Cooling Degree Days 0 0  
Month to date cooling degree days 24 18  
Year to date cooling degree days 735 549  
Growing Degree Days 10 (Base 50)    
Moisture  
Dew Point 54 °F    
Average Humidity 80    
Maximum Humidity 93    
Minimum Humidity 67    
Precipitation  
Precipitation 0.00 in 0.04 in 1.56 in (1981)
Month to date precipitation 0.32 0.97  
Year to date precipitation 5.08 10.63  
Since 1 July precipitation 0.47  
Sea Level Pressure  
Sea Level Pressure 30.12 in    
Wind  
Wind Speed 6 mph (West)    
Max Wind Speed 18 mph    
Max Gust Speed 22 mph    
Visibility 9 miles    
Events Fog    
T = Trace of Precipitation, MM = Missing Value Source: NWS Daily Summary

Daily Weather History Graph

Daily Weather History Graph

Search for Another Location

Airport or City:

Trip Planner

Search our weather history database for the weather conditions in past years. The results will help you decide how hot, cold, wet, or windy it might be!

Date:

Astronomy

Nov. 27, 2012 Rise Set
Actual Time 6:37 AM PST 4:45 PM PST
Civil Twilight 6:10 AM PST 5:12 PM PST
Nautical Twilight 5:39 AM PST 5:42 PM PST
Astronomical Twilight 5:09 AM PST 6:13 PM PST
Moon 4:19 PM PST (11/27) 5:48 AM PST (11/27)
Length of Visible Light 11h 01m
Length of Day
10h 07m
Waxing Gibbous, 99% of the Moon is Illuminated
Nov 27
Waxing Gibbous
Nov 28
Full
Dec 6
Last Quarter
Dec 13
New
Dec 19
First Quarter

Hourly Weather History & Observations

Time (PST) Temp. Dew Point Humidity Pressure Visibility Wind Dir Wind Speed Gust Speed Precip Events Conditions
12:53 AM 57.0 °F 53.1 °F 87% 30.10 in 10.0 mi NNW 5.8 mph - N/A   Scattered Clouds
1:53 AM 54.0 °F 51.1 °F 90% 30.10 in 10.0 mi Calm Calm - N/A   Scattered Clouds
2:53 AM 55.0 °F 52.0 °F 89% 30.10 in 10.0 mi Calm Calm - N/A   Mostly Cloudy
3:53 AM 55.0 °F 51.1 °F 86% 30.09 in 10.0 mi Calm Calm - N/A   Mostly Cloudy
4:53 AM 54.0 °F 51.1 °F 90% 30.12 in 10.0 mi West 4.6 mph - N/A   Mostly Cloudy
4:59 AM 55.4 °F 51.8 °F 88% 30.12 in 7.0 mi West 4.6 mph - N/A   Mostly Cloudy
5:41 AM 57.2 °F 53.6 °F 88% 30.14 in 7.0 mi West 8.1 mph - N/A   Mostly Cloudy
5:53 AM 57.9 °F 55.0 °F 90% 30.14 in 7.0 mi West 10.4 mph - N/A   Overcast
6:28 AM 59.0 °F 55.4 °F 88% 30.15 in 7.0 mi West 10.4 mph - N/A   Overcast
6:34 AM 57.2 °F 55.4 °F 94% 30.15 in 7.0 mi West 10.4 mph - N/A   Overcast
6:50 AM 59.0 °F 53.6 °F 82% 30.15 in 7.0 mi NW 6.9 mph - N/A Fog Patches of Fog
6:53 AM 57.9 °F 54.0 °F 87% 30.15 in 7.0 mi NW 6.9 mph - N/A Fog Patches of Fog
7:48 AM 59.0 °F 53.6 °F 82% 30.16 in 7.0 mi West 3.5 mph - N/A   Mostly Cloudy
7:53 AM 59.0 °F 53.1 °F 81% 30.16 in 7.0 mi Variable 4.6 mph - N/A   Mostly Cloudy
8:53 AM 60.1 °F 53.1 °F 78% 30.17 in 7.0 mi WSW 5.8 mph - N/A   Mostly Cloudy
9:53 AM 60.1 °F 53.1 °F 78% 30.17 in 7.0 mi West 3.5 mph - N/A   Mostly Cloudy
10:53 AM 63.0 °F 54.0 °F 72% 30.14 in 7.0 mi Calm Calm - N/A   Mostly Cloudy
11:53 AM 64.9 °F 53.1 °F 65% 30.11 in 7.0 mi WSW 8.1 mph - N/A   Mostly Cloudy
12:53 PM 63.0 °F 54.0 °F 72% 30.09 in 7.0 mi West 9.2 mph - N/A   Mostly Cloudy
1:53 PM 62.1 °F 54.0 °F 75% 30.07 in 8.0 mi WSW 11.5 mph - N/A   Mostly Cloudy
2:53 PM 62.1 °F 53.1 °F 72% 30.07 in 9.0 mi West 17.3 mph - N/A   Mostly Cloudy
3:53 PM 61.0 °F 54.0 °F 78% 30.06 in 10.0 mi West 11.5 mph - N/A   Scattered Clouds
4:53 PM 60.1 °F 54.0 °F 80% 30.07 in 10.0 mi West 10.4 mph - N/A   Scattered Clouds
5:53 PM 59.0 °F 54.0 °F 83% 30.07 in 10.0 mi West 6.9 mph - N/A   Scattered Clouds
6:53 PM 59.0 °F 54.0 °F 83% 30.09 in 10.0 mi WSW 6.9 mph - N/A   Scattered Clouds
7:53 PM 60.1 °F 55.0 °F 83% 30.11 in 10.0 mi Variable 3.5 mph - N/A   Scattered Clouds
8:53 PM 59.0 °F 55.0 °F 87% 30.12 in 9.0 mi WSW 3.5 mph - N/A   Scattered Clouds
9:22 PM 60.8 °F 55.4 °F 82% 30.15 in 9.0 mi WSW 5.8 mph - N/A   Overcast
9:53 PM 61.0 °F 54.0 °F 78% 30.14 in 10.0 mi SW 5.8 mph - N/A   Overcast
10:12 PM 60.8 °F 53.6 °F 77% 30.14 in 10.0 mi West 3.5 mph - N/A   Mostly Cloudy
10:53 PM 60.1 °F 54.0 °F 80% 30.15 in 10.0 mi West 3.5 mph - N/A   Overcast
11:53 PM 60.1 °F 54.0 °F 80% 30.14 in 10.0 mi ENE 3.5 mph - N/A   Overcast